Location: Unspecified
(0.0000°N, 0.0000°E)
Time: 00:26:10
(UTC+00:00)

deb Delta 104 - Pass Details

Date: 08 March 2026
Orbit: 1430 x 1579 km, 102.3° (Epoch: 12 April)

Event Time Altitude Azimuth Distance (km) Brightness Sun altitude
Rises 05:26:26 0° 7° (N) 4,749 ? -11.1°
Reaches altitude 10° 05:29:22 10° 3° (N) 3,770 ? -10.3°
Maximum altitude 05:38:01 57° 287° (WNW) 1,803 ? -8.2°
Drops below altitude 10° 05:46:39 10° 210° (SSW) 3,743 ? -6.0°
Sets 05:49:34 0° 206° (SSW) 4,713 ? -5.3°
